カタログに戻る

KAZSAT 1

運用中通信GEO
NORAD 29230·PAYLOAD·🇰🇿 Kazakhstan

打ち上げ Jun 17, 2006 から Baikonur Cosmodrome

Loading…

TLE

最新Source: Space-Track

元期: Sep 14, 2026, 16:47 UTC

1 29230U 06022A   26257.69967994 -.00000301  00000-0  00000-0 0  9992
2 29230  12.0210  35.2237 0006104 193.7451 169.6741  0.99237274 73532

AllMySatでKAZSAT 1をリアルタイム追跡

Download on the App Store